IRA961T DNAA-FOOL

Flight info

Callsign IRA961T
Flight time N/A
Altitude 23000
Route LUKRO W225 GB/N0452F350 DCT BTA BTA2B
Aircraft B738/M-SDE2E3FGHIRWXY/LB1

Departure

Time N/A
Airport Nnamdi Azikiwe International Airport (DNAA)

Arrival

Time 2026-04-24 20:08
Airport Libreville Leon M'ba International Airport (FOOL)
Time Latitude Longitude Altitude Speed Heading
2026-04-24 18:54 7.80173 8.51151 23001 ft 432 kts 134°
2026-04-24 18:55 7.75997 8.55512 23001 ft 432 kts 134°
2026-04-24 18:55 7.73904 8.57697 23002 ft 432 kts 134°
2026-04-24 18:55 7.71812 8.59875 23002 ft 432 kts 135°
2026-04-24 18:56 7.69626 8.61954 23002 ft 432 kts 138°
2026-04-24 18:56 7.67392 8.63927 23002 ft 432 kts 139°
2026-04-24 18:56 7.65103 8.65896 23002 ft 433 kts 140°
2026-04-24 18:56 7.62813 8.67859 23001 ft 433 kts 139°
2026-04-24 18:57 7.60523 8.69833 23002 ft 433 kts 139°
2026-04-24 18:57 7.58245 8.71810 23002 ft 433 kts 139°
2026-04-24 18:57 7.55969 8.73797 23001 ft 433 kts 139°
2026-04-24 18:57 7.53696 8.75787 23001 ft 433 kts 139°
2026-04-24 18:58 7.51426 8.77778 23001 ft 433 kts 139°
2026-04-24 18:58 7.49153 8.79772 23002 ft 433 kts 139°
2026-04-24 18:58 7.46886 8.81761 23001 ft 433 kts 139°
2026-04-24 18:58 7.44612 8.83755 23001 ft 433 kts 139°
2026-04-24 18:59 7.42344 8.85743 23002 ft 433 kts 139°
2026-04-24 18:59 7.40069 8.87736 23002 ft 433 kts 139°
2026-04-24 18:59 7.37798 8.89727 23001 ft 433 kts 139°
2026-04-24 18:59 7.35525 8.91718 23001 ft 433 kts 139°
2026-04-24 19:00 7.33252 8.93710 23001 ft 433 kts 139°
2026-04-24 19:00 7.30979 8.95700 23002 ft 433 kts 139°
2026-04-24 19:00 7.28701 8.97691 23002 ft 433 kts 140°
2026-04-24 19:00 7.26237 8.99432 22992 ft 433 kts 151°
2026-04-24 19:01 7.23489 9.00653 23004 ft 433 kts 161°
2026-04-24 19:01 7.20561 9.01375 23001 ft 433 kts 171°
2026-04-24 19:01 7.17583 9.01817 23005 ft 433 kts 172°
2026-04-24 19:01 7.14595 9.02237 22997 ft 433 kts 172°
2026-04-24 19:02 7.12620 9.02515 22997 ft 433 kts 172°
2026-04-24 19:02 7.08625 9.03084 22999 ft 433 kts 172°
2026-04-24 19:02 7.05641 9.03520 23001 ft 433 kts 172°
2026-04-24 19:02 7.02660 9.03962 23001 ft 433 kts 171°
2026-04-24 19:03 6.99716 9.04403 23002 ft 433 kts 171°
2026-04-24 19:03 6.96696 9.04859 23002 ft 433 kts 171°
2026-04-24 19:03 6.93713 9.05310 23000 ft 433 kts 171°
2026-04-24 19:03 6.90770 9.05756 23001 ft 433 kts 171°
2026-04-24 19:04 6.87753 9.06213 23001 ft 433 kts 171°
2026-04-24 19:04 6.84772 9.06664 23001 ft 433 kts 171°
2026-04-24 19:04 6.81794 9.07115 23001 ft 433 kts 171°
2026-04-24 19:04 6.78816 9.07566 23002 ft 433 kts 171°
2026-04-24 19:05 6.75837 9.08016 23001 ft 433 kts 171°
2026-04-24 19:05 6.72860 9.08467 23001 ft 433 kts 171°
2026-04-24 19:05 6.69882 9.08917 23002 ft 433 kts 171°
2026-04-24 19:05 6.66940 9.09362 23002 ft 433 kts 171°
2026-04-24 19:06 6.63961 9.09812 23001 ft 433 kts 171°
2026-04-24 19:06 6.60985 9.10262 23001 ft 433 kts 171°
2026-04-24 19:06 6.58002 9.10713 23001 ft 433 kts 171°
2026-04-24 19:06 6.55021 9.11163 23001 ft 433 kts 171°
2026-04-24 19:07 6.52039 9.11614 23002 ft 433 kts 171°
2026-04-24 19:07 6.49058 9.12064 23004 ft 434 kts 171°
2026-04-24 19:07 6.47042 9.12369 23004 ft 434 kts 171°
2026-04-24 19:07 6.43086 9.12966 23002 ft 434 kts 171°
2026-04-24 19:08 6.40102 9.13417 23002 ft 434 kts 171°
2026-04-24 19:08 6.37118 9.13868 23001 ft 434 kts 171°
2026-04-24 19:08 6.34136 9.14318 23001 ft 433 kts 171°
2026-04-24 19:08 6.31151 9.14768 23001 ft 433 kts 171°
2026-04-24 19:09 6.28175 9.15218 23001 ft 433 kts 171°
2026-04-24 19:09 6.25198 9.15667 23001 ft 433 kts 171°
2026-04-24 19:09 6.22218 9.16117 23001 ft 433 kts 171°
2026-04-24 19:09 6.19242 9.16566 23002 ft 433 kts 171°
2026-04-24 19:10 6.16265 9.17015 23002 ft 433 kts 171°
2026-04-24 19:10 6.13288 9.17464 23002 ft 433 kts 171°
2026-04-24 19:10 6.10310 9.17913 23000 ft 433 kts 171°
2026-04-24 19:10 6.07333 9.18362 23001 ft 433 kts 171°
2026-04-24 19:11 6.04355 9.18811 23002 ft 433 kts 171°
2026-04-24 19:11 6.01378 9.19261 23002 ft 433 kts 171°
2026-04-24 19:11 5.98437 9.19704 23001 ft 433 kts 171°
2026-04-24 19:11 5.95462 9.20152 23002 ft 433 kts 171°
2026-04-24 19:12 5.92443 9.20608 23002 ft 433 kts 171°
2026-04-24 19:12 5.89504 9.21051 23002 ft 433 kts 171°
2026-04-24 19:12 5.86526 9.21499 23002 ft 433 kts 171°
2026-04-24 19:12 5.83549 9.21948 23001 ft 433 kts 171°
2026-04-24 19:13 5.81539 9.22251 23001 ft 433 kts 171°
2026-04-24 19:13 5.77594 9.22845 23002 ft 433 kts 171°
2026-04-24 19:13 5.74621 9.23293 23001 ft 433 kts 171°
2026-04-24 19:13 5.71639 9.23742 23002 ft 433 kts 171°
2026-04-24 19:14 5.68663 9.24191 23001 ft 433 kts 171°
2026-04-24 19:14 5.65689 9.24639 23001 ft 433 kts 171°
2026-04-24 19:14 5.62709 9.25087 23002 ft 433 kts 171°
2026-04-24 19:14 5.59732 9.25536 23002 ft 433 kts 171°
2026-04-24 19:15 5.56750 9.25985 23000 ft 433 kts 171°
2026-04-24 19:15 5.53768 9.26434 23002 ft 434 kts 171°
2026-04-24 19:15 5.50781 9.26883 23004 ft 434 kts 171°
2026-04-24 19:15 5.47795 9.27332 23001 ft 434 kts 171°
2026-04-24 19:16 5.41817 9.28232 23002 ft 435 kts 171°
2026-04-24 19:16 5.38827 9.28682 23003 ft 435 kts 171°
2026-04-24 19:16 5.35835 9.29132 22998 ft 435 kts 171°
2026-04-24 19:17 5.32841 9.29583 23001 ft 435 kts 171°
2026-04-24 19:17 5.29848 9.30033 23004 ft 435 kts 171°
2026-04-24 19:17 5.26854 9.30483 23001 ft 435 kts 171°
2026-04-24 19:17 5.23858 9.30934 23001 ft 435 kts 171°
2026-04-24 19:18 5.20871 9.31383 23001 ft 434 kts 171°
2026-04-24 19:18 5.17882 9.31832 23001 ft 434 kts 171°
2026-04-24 19:18 5.14898 9.32281 23000 ft 434 kts 171°
2026-04-24 19:18 5.11910 9.32730 22999 ft 434 kts 171°
2026-04-24 19:19 5.08922 9.33179 23002 ft 434 kts 171°
2026-04-24 19:19 5.05933 9.33629 23003 ft 435 kts 171°
2026-04-24 19:19 5.02943 9.34078 23004 ft 435 kts 171°
2026-04-24 19:19 4.99949 9.34528 22998 ft 436 kts 171°
2026-04-24 19:20 4.96945 9.34979 23004 ft 436 kts 171°
2026-04-24 19:20 4.93943 9.35430 23002 ft 437 kts 171°
2026-04-24 19:20 4.90939 9.35882 22999 ft 437 kts 171°
2026-04-24 19:20 4.87967 9.36328 23002 ft 437 kts 171°
2026-04-24 19:21 4.84964 9.36779 23002 ft 437 kts 171°
2026-04-24 19:21 4.81955 9.37231 23001 ft 437 kts 171°
2026-04-24 19:21 4.78949 9.37683 23000 ft 436 kts 171°
2026-04-24 19:21 4.75950 9.38133 23001 ft 436 kts 171°
2026-04-24 19:22 4.73965 9.38431 23000 ft 435 kts 171°
2026-04-24 19:22 4.69960 9.39032 23002 ft 435 kts 171°
2026-04-24 19:22 4.66975 9.39481 23001 ft 434 kts 171°
2026-04-24 19:22 4.63987 9.39929 23001 ft 434 kts 171°
2026-04-24 19:23 4.61002 9.40377 23001 ft 433 kts 171°
2026-04-24 19:23 4.58022 9.40824 23001 ft 433 kts 171°
2026-04-24 19:23 4.55041 9.41272 23001 ft 433 kts 171°
2026-04-24 19:23 4.52069 9.41718 23002 ft 432 kts 171°
2026-04-24 19:24 4.49093 9.42164 23002 ft 432 kts 171°
2026-04-24 19:24 4.46119 9.42611 23001 ft 432 kts 171°
2026-04-24 19:24 4.43146 9.43057 23001 ft 432 kts 171°
2026-04-24 19:24 4.40176 9.43502 23003 ft 432 kts 171°
2026-04-24 19:25 4.37203 9.43948 23001 ft 432 kts 171°
2026-04-24 19:25 4.34227 9.44394 23001 ft 432 kts 171°
2026-04-24 19:25 4.32261 9.44689 23001 ft 432 kts 171°
2026-04-24 19:25 4.29285 9.45136 23002 ft 432 kts 171°
2026-04-24 19:26 4.26310 9.45582 23000 ft 432 kts 171°
2026-04-24 19:26 4.23338 9.46027 23002 ft 432 kts 171°
2026-04-24 19:26 4.20363 9.46474 23002 ft 432 kts 171°
2026-04-24 19:26 4.17388 9.46920 23001 ft 432 kts 171°
2026-04-24 19:27 4.14415 9.47365 23001 ft 432 kts 171°
2026-04-24 19:27 4.11439 9.47811 23000 ft 432 kts 171°
2026-04-24 19:27 4.08465 9.48257 23002 ft 432 kts 171°
2026-04-24 19:27 4.05495 9.48702 23001 ft 432 kts 171°
2026-04-24 19:28 4.02518 9.49148 23001 ft 432 kts 171°
2026-04-24 19:28 3.99547 9.49594 23001 ft 432 kts 171°
2026-04-24 19:28 3.96574 9.50039 23001 ft 432 kts 171°
2026-04-24 19:28 3.93604 9.50484 23002 ft 432 kts 171°
2026-04-24 19:29 3.87653 9.51376 23001 ft 432 kts 171°
2026-04-24 19:29 3.84682 9.51821 23002 ft 432 kts 171°
2026-04-24 19:29 3.81707 9.52267 23001 ft 432 kts 171°
2026-04-24 19:30 3.78737 9.52711 23002 ft 432 kts 171°
2026-04-24 19:30 3.75762 9.53157 23002 ft 432 kts 171°
2026-04-24 19:30 3.72832 9.53596 23001 ft 432 kts 171°
2026-04-24 19:30 3.69820 9.54047 23002 ft 432 kts 171°
2026-04-24 19:31 3.66844 9.54493 23002 ft 432 kts 171°
2026-04-24 19:31 3.63912 9.54931 23002 ft 432 kts 171°
2026-04-24 19:31 3.60938 9.55377 23002 ft 432 kts 171°
2026-04-24 19:31 3.57967 9.55822 23002 ft 432 kts 171°
2026-04-24 19:32 3.54994 9.56267 23002 ft 432 kts 171°
2026-04-24 19:32 3.52020 9.56712 23002 ft 432 kts 171°
2026-04-24 19:32 3.49049 9.57157 23002 ft 432 kts 171°
2026-04-24 19:32 3.46075 9.57602 23002 ft 432 kts 171°
2026-04-24 19:33 3.43103 9.58046 23002 ft 432 kts 171°
2026-04-24 19:33 3.40130 9.58491 23002 ft 432 kts 171°
2026-04-24 19:33 3.37157 9.58936 23002 ft 432 kts 171°
2026-04-24 19:33 3.34184 9.59381 23002 ft 432 kts 171°
2026-04-24 19:34 3.31213 9.59826 23002 ft 432 kts 171°
2026-04-24 19:34 3.28235 9.60271 23002 ft 432 kts 171°
2026-04-24 19:34 3.25266 9.60716 23001 ft 432 kts 171°
2026-04-24 19:34 3.22292 9.61160 23000 ft 432 kts 171°
2026-04-24 19:35 3.19319 9.61605 23002 ft 432 kts 171°
2026-04-24 19:35 3.16348 9.62050 23002 ft 432 kts 171°
2026-04-24 19:35 3.13379 9.62494 23002 ft 432 kts 171°
2026-04-24 19:35 3.10399 9.62939 23002 ft 432 kts 171°
2026-04-24 19:36 3.07432 9.63383 23002 ft 432 kts 171°
2026-04-24 19:36 3.04457 9.63828 23002 ft 432 kts 171°
2026-04-24 19:36 3.01482 9.64273 23002 ft 432 kts 171°
2026-04-24 19:36 2.98508 9.64718 23001 ft 432 kts 171°
2026-04-24 19:37 2.95540 9.65161 23002 ft 432 kts 171°
2026-04-24 19:37 2.92564 9.65606 23002 ft 432 kts 171°
2026-04-24 19:37 2.89593 9.66051 23002 ft 432 kts 171°
2026-04-24 19:37 2.86617 9.66495 23002 ft 432 kts 171°
2026-04-24 19:38 2.83643 9.66940 23002 ft 432 kts 171°
2026-04-24 19:38 2.80670 9.67385 23002 ft 432 kts 171°
2026-04-24 19:38 2.77698 9.67829 23002 ft 432 kts 171°
2026-04-24 19:38 2.74728 9.68273 23002 ft 432 kts 171°
2026-04-24 19:39 2.71758 9.68717 23002 ft 432 kts 171°
2026-04-24 19:39 2.68783 9.69161 23002 ft 432 kts 171°
2026-04-24 19:39 2.65846 9.69600 22822 ft 434 kts 171°
2026-04-24 19:39 2.62868 9.70045 22370 ft 430 kts 171°
2026-04-24 19:40 2.59946 9.70482 21980 ft 420 kts 171°
2026-04-24 19:40 2.57083 9.70910 21661 ft 409 kts 171°
2026-04-24 19:40 2.54310 9.71324 21407 ft 398 kts 171°
2026-04-24 19:40 2.51602 9.71729 21150 ft 389 kts 171°
2026-04-24 19:41 2.48893 9.72133 20901 ft 389 kts 171°
2026-04-24 19:41 2.46243 9.72529 20664 ft 392 kts 171°
2026-04-24 19:41 2.43543 9.72933 20418 ft 393 kts 171°
2026-04-24 19:41 2.40848 9.73335 20167 ft 390 kts 171°
2026-04-24 19:42 2.38169 9.73736 19915 ft 388 kts 171°
2026-04-24 19:42 2.35505 9.74134 19664 ft 386 kts 171°
2026-04-24 19:42 2.32820 9.74535 19412 ft 385 kts 171°
2026-04-24 19:42 2.30173 9.74930 19162 ft 383 kts 171°
2026-04-24 19:43 2.27538 9.75323 18913 ft 382 kts 171°
2026-04-24 19:43 2.24945 9.75711 18667 ft 381 kts 171°
2026-04-24 19:43 2.22325 9.76102 18418 ft 381 kts 171°
2026-04-24 19:43 2.19712 9.76492 18168 ft 380 kts 171°
2026-04-24 19:44 2.17102 9.76882 17917 ft 379 kts 171°
2026-04-24 19:44 2.14497 9.77271 17670 ft 378 kts 171°
2026-04-24 19:44 2.11901 9.77659 17423 ft 377 kts 171°
2026-04-24 19:44 2.09315 9.78045 17169 ft 375 kts 171°
2026-04-24 19:45 2.06736 9.78430 16917 ft 374 kts 171°
2026-04-24 19:45 2.04169 9.78814 16669 ft 373 kts 171°
2026-04-24 19:45 2.01607 9.79196 16419 ft 371 kts 171°
2026-04-24 19:45 1.99060 9.79577 16163 ft 370 kts 171°
2026-04-24 19:46 1.96521 9.79956 15919 ft 368 kts 171°
2026-04-24 19:46 1.93993 9.80333 15666 ft 367 kts 171°
2026-04-24 19:46 1.91472 9.80682 15419 ft 365 kts 176°
2026-04-24 19:46 1.88972 9.80377 15147 ft 364 kts 198°
2026-04-24 19:47 1.86634 9.79433 14926 ft 362 kts 204°
2026-04-24 19:47 1.84340 9.78402 14672 ft 361 kts 204°
2026-04-24 19:47 1.82061 9.77356 14422 ft 360 kts 205°
2026-04-24 19:47 1.79790 9.76314 14172 ft 359 kts 205°
2026-04-24 19:48 1.77520 9.75278 13923 ft 358 kts 204°
2026-04-24 19:48 1.75256 9.74252 13670 ft 357 kts 204°
2026-04-24 19:48 1.70746 9.72225 13170 ft 354 kts 204°
2026-04-24 19:49 1.66263 9.70219 12664 ft 352 kts 204°
2026-04-24 19:49 1.61812 9.68232 12177 ft 349 kts 204°
2026-04-24 19:50 1.55204 9.65282 11420 ft 345 kts 204°
2026-04-24 19:50 1.53011 9.64303 11169 ft 344 kts 204°
2026-04-24 19:51 1.48660 9.62361 10656 ft 341 kts 204°
2026-04-24 19:51 1.46496 9.61396 10416 ft 340 kts 204°
2026-04-24 19:52 1.42191 9.59474 9919 ft 338 kts 204°
2026-04-24 19:52 1.40047 9.58518 9669 ft 337 kts 204°
2026-04-24 19:52 1.37915 9.57566 9420 ft 336 kts 204°
2026-04-24 19:52 1.35788 9.56617 9170 ft 334 kts 204°
2026-04-24 19:53 1.33665 9.55670 8919 ft 333 kts 204°
2026-04-24 19:53 1.31550 9.54726 8669 ft 332 kts 204°
2026-04-24 19:53 1.27344 9.52849 8168 ft 330 kts 204°
2026-04-24 19:54 1.25252 9.51915 7923 ft 329 kts 204°
2026-04-24 19:54 1.23194 9.50997 7672 ft 328 kts 204°
2026-04-24 19:54 1.21117 9.50070 7415 ft 326 kts 204°
2026-04-24 19:54 1.19048 9.49147 7172 ft 325 kts 204°
2026-04-24 19:55 1.17653 9.48524 6995 ft 324 kts 204°
2026-04-24 19:55 1.14930 9.47310 6672 ft 323 kts 204°
2026-04-24 19:55 1.12881 9.46396 6419 ft 322 kts 204°
2026-04-24 19:55 1.10847 9.45488 6171 ft 317 kts 204°
2026-04-24 19:56 1.08862 9.44602 5951 ft 308 kts 204°
2026-04-24 19:56 1.06929 9.43740 5748 ft 300 kts 204°
2026-04-24 19:56 1.05050 9.42901 5543 ft 292 kts 204°
2026-04-24 19:56 1.03221 9.42085 5378 ft 284 kts 204°
2026-04-24 19:57 1.01440 9.41291 5219 ft 276 kts 204°
2026-04-24 19:57 0.99706 9.40517 5050 ft 269 kts 204°
2026-04-24 19:57 0.98017 9.39764 4900 ft 263 kts 204°
2026-04-24 19:57 0.96367 9.39027 4753 ft 257 kts 204°
2026-04-24 19:58 0.94754 9.38307 4588 ft 251 kts 204°
2026-04-24 19:58 0.93180 9.37605 4433 ft 246 kts 204°
2026-04-24 19:58 0.91634 9.36915 4271 ft 240 kts 204°
2026-04-24 19:58 0.90122 9.36241 4117 ft 236 kts 204°
2026-04-24 19:59 0.88641 9.35580 3960 ft 231 kts 204°
2026-04-24 19:59 0.87187 9.34931 3806 ft 227 kts 204°
2026-04-24 19:59 0.85752 9.34291 3653 ft 225 kts 204°
2026-04-24 19:59 0.84322 9.33653 3509 ft 225 kts 204°
2026-04-24 20:00 0.82895 9.33017 3357 ft 224 kts 204°
2026-04-24 20:00 0.81473 9.32385 3201 ft 223 kts 202°
2026-04-24 20:00 0.79962 9.32092 3045 ft 223 kts 179°
2026-04-24 20:00 0.78430 9.32132 2916 ft 224 kts 179°
2026-04-24 20:01 0.76879 9.32151 2800 ft 220 kts 179°
2026-04-24 20:01 0.75353 9.32164 2696 ft 213 kts 179°
2026-04-24 20:01 0.73900 9.32172 2591 ft 206 kts 180°
2026-04-24 20:01 0.72510 9.32177 2487 ft 199 kts 180°
2026-04-24 20:02 0.71588 9.32180 2416 ft 194 kts 180°
2026-04-24 20:02 0.69822 9.32183 2268 ft 186 kts 180°
2026-04-24 20:02 0.68541 9.32185 2211 ft 185 kts 180°
2026-04-24 20:02 0.67273 9.32186 2172 ft 178 kts 180°
2026-04-24 20:03 0.66064 9.32187 2146 ft 169 kts 180°
2026-04-24 20:03 0.64907 9.32191 2164 ft 168 kts 178°
2026-04-24 20:03 0.63801 9.32515 2156 ft 165 kts 152°
2026-04-24 20:03 0.62782 9.33015 2141 ft 161 kts 155°
2026-04-24 20:04 0.61771 9.33491 2133 ft 160 kts 154°
2026-04-24 20:04 0.60776 9.33969 2143 ft 161 kts 154°
2026-04-24 20:04 0.59765 9.34459 2144 ft 162 kts 154°
2026-04-24 20:04 0.58766 9.34945 2144 ft 162 kts 154°
2026-04-24 20:05 0.57748 9.35441 2144 ft 163 kts 154°
2026-04-24 20:05 0.56732 9.35936 2093 ft 164 kts 154°
2026-04-24 20:05 0.55696 9.36440 1908 ft 165 kts 154°
2026-04-24 20:05 0.54691 9.36930 1695 ft 154 kts 154°
2026-04-24 20:06 0.53778 9.37374 1499 ft 140 kts 154°
2026-04-24 20:06 0.52932 9.37786 1319 ft 133 kts 154°
2026-04-24 20:06 0.52098 9.38192 1150 ft 134 kts 154°
2026-04-24 20:06 0.51258 9.38601 974 ft 134 kts 154°
2026-04-24 20:07 0.50704 9.38871 847 ft 134 kts 154°
2026-04-24 20:07 0.49589 9.39415 625 ft 133 kts 153°
2026-04-24 20:07 0.48766 9.39836 422 ft 133 kts 153°
2026-04-24 20:07 0.47932 9.40236 231 ft 133 kts 155°
2026-04-24 20:08 0.47100 9.40632 44 ft 131 kts 155°
2026-04-24 20:08 0.46400 9.40973 35 ft 73 kts 154°
2026-04-24 20:08 0.46012 9.41161 31 ft 44 kts 154°
2026-04-24 20:08 0.45819 9.41189 33 ft 18 kts 224°
2026-04-24 20:09 0.45792 9.41081 33 ft 11 kts 218°
2026-04-24 20:09 0.45775 9.41069 34 ft 0 kts 214°